Regional Weather Roundup
Issued by NWS

Home | Current Version | Previous Version | Text Only | Print | Product List | Glossary Off
Versions: 1 2 3 4 5 6 7 8 9 10 11 12 13 14 15 16 17 18 19 20 21 22 23 24 25 26 27 28 29 30 31 32 33 34 35 36 37 38 39 40 41 42 43 44 45 46 47 48 49 50

000
ASUS45 KTFX 272104
RWRMT
MONTANA HOURLY WEATHER ROUNDUP
NATIONAL WEATHER SERVICE GREAT FALLS MT
304 PM MDT FRI MAR 27 2015

NOTE: "FAIR" INDICATES FEW OR NO CLOUDS BELOW 12000 FEET WITH NO
SIGNIFICANT WEATHER AND/OR OBSTRUCTIONS TO VISIBILITY.

* THESE STATIONS ARE NOT UNDER NWS QUALITY CONTROL. THEY DO NOT
   REPORT WEATHER SUCH AS PRECIPITATION OR FOG.

MTZ001>007-043-272200-
WEST OF THE DIVIDE
CITY           SKY/WX    TMP DP  RH WIND       PRES   REMARKS
KALISPELL      SUNNY     63  43  48 S10       30.03F
MISSOULA       SUNNY     64  43  47 S3        30.07F
BUTTE          SUNNY     66  30  26 NW8       30.11F
MULLAN PASS    SUNNY     55  37  51 VRB7G17   30.13F
* ESSEX        N/A       64  32  30 W4G10      N/A
* LINCOLN      N/A       66  35  32 W8G19      N/A
* LOOKOUT PASS N/A       63  42  46 S6G17      N/A
* POLSON       N/A       67  47  49 SE2G7      N/A
* RONAN APT    SUNNY     66  46  49 N/A        N/A
* SEELEY LAKE  N/A       66  39  37 W6G11      N/A
* THOMP F APT  SUNNY     55  34  45 S9G17      N/A
$$

MTZ008-052>055-272200-
SOUTHWEST MONTANA
CITY           SKY/WX    TMP DP  RH WIND       PRES   REMARKS
BOZEMAN        SUNNY     70  34  27 N6        30.07F
DILLON         SUNNY     73  25  17 W21G30    30.09F
* W YELLOWSTON SUNNY     59  35  41 SW6G13     N/A
* THREE FORKS  SUNNY     73  34  24 N/A        N/A
* TWIN BRIDGES SUNNY     72  32  23 N/A        N/A
* BOULDER HILL N/A       66  30  26 VRB5G12    N/A
* HOMESTAKE PS N/A       61  31  32 NW6G15     N/A
* MONIDA PASS  N/A       54  33  45 SE19G26    N/A
* RAYNOLDS PAS N/A       52  37  57 S16        N/A
* WHITEHALL    N/A       75  34  22 SW11G20    N/A
* WISE RIVER   N/A       65  29  26 W16G25     N/A
$$

MTZ009>010-012-014-046-048-049-054-272200-
EAST SLOPES AND CENTRAL MONTANA
CITY           SKY/WX    TMP DP  RH WIND       PRES   REMARKS
CUT BANK       CLOUDY    66  30  26 W26G37    29.96F
GREAT FALLS    PTCLDY    73  21  14 W23G31    29.98F
HELENA         PTSUNNY   66  36  33 E7        30.04F
MALMSTROM AFB  PTCLDY    72  25  17 W16G26    29.98F
* DEARBORN     N/A       69  35  29 S18G24     N/A
* EAST GLACIER N/A       58  31  36 W24G34     N/A
* MONARCH      N/A       65  16  15 W19G27     N/A
* PENDROY      N/A       66  18  16 W10        N/A
* ROGERS PASS  N/A       58  31  36 SE12G19    N/A
* SAINT MARY   N/A       57  32  39 S8G21      N/A
$$

MTZ011-013-016-021-035-040-045-047-050-051-272200-
NORTH CENTRAL MONTANA
CITY           SKY/WX    TMP DP  RH WIND       PRES   REMARKS
HAVRE          PTSUNNY   72  30  21 W18G25    29.90F
LEWISTOWN      PTCLDY    72  28  19 NW13G20   29.98F
* N BAR RANCH  SUNNY     70  23  17 W20G31    30.00F
* MALTA APT    CLOUDY    70  37  30 W16        N/A
* CHESTER      N/A       70  26  19 W16G27     N/A
* DENTON       N/A       72  27  19 W13G25     N/A
* GEYSER       N/A       70  25  18 W23G33     N/A
* JUDITH GAP   N/A       71  27  19 NW12G24    N/A
* LOMA         N/A       73  23  15 W19G28     N/A
$$

MTZ017>020-022>027-061-062-272200-
NORTHEAST MONTANA
CITY           SKY/WX    TMP DP  RH WIND       PRES   REMARKS
GLASGOW        PTCLDY    70  37  30 NW14G21   29.90F
GLENDIVE       PTSUNNY   66  37  34 NW10      29.91F
JORDAN         SUNNY     68  37  32 VRB7      29.92F
SIDNEY         PTSUNNY   64  36  35 NW8       29.91S
WOLF POINT     SUNNY     70  36  29 W14G21    29.89F
* BEAVER HILL  N/A       63  35  35 W11G24     N/A
* CIRCLE       N/A       66  42  42 W8G13      N/A
* LINDSAY DVD  N/A       64  37  37 W16G24     N/A
* NAVAJO       N/A       58  38  47 NW9G15     N/A
* SACO         N/A       68  36  31 W14G19     N/A
$$

MTZ028>042-056>058-272200-
SOUTHCENTRAL AND SOUTHEAST MONTANA
CITY           SKY/WX    TMP DP  RH WIND       PRES   REMARKS
BAKER          PTCLDY    66  36  33 NW18G25   29.92F
BILLINGS       PTCLDY    75  25  15 W17G32    29.97F
LIVINGSTON     SUNNY     73  30  20 W16       30.05F
MILES CITY     SUNNY     72  36  27 NW20      29.92F
* LAUREL APT   PTCLDY    73  30  20 W15G23     N/A
* ROUNDUP APT  PTCLDY    73  23  15 NW17G29    N/A
* ALZADA       N/A       66  33  29 W20G25     N/A
* HYSHAM       N/A       70  29  22 NW4G14     N/A
* LAME DEER    N/A       64  30  28 W12G24     N/A
* REED POINT   N/A       71  32  24 W20G27     N/A
* ROSCOE HILL  N/A       73  13  10 W5G13      N/A
$$

REGIONAL REPORTS...DAKOTAS
CITY           SKY/WX    TMP DP  RH WIND       PRES   REMARKS
WILLISTON      CLOUDY    63  36  37 NW17G23   29.89F
DICKINSON      PTSUNNY   64  34  33 NW22G30   29.86F
CROSBY         SUNNY     55  37  51 N16G23    29.90S
WATFORD CITY   SUNNY     57  36  46 NW14G20   29.87F
BISMARCK       CLOUDY    48  32  54 S9        29.90F
GRAND FORKS    CLOUDY    34  19  54 SE12      30.08F WCI  25
FARGO          CLOUDY    37   7  28 S10       30.08F WCI  30
BUFFALO SD     PTSUNNY   66  34  31 NW23G31   29.85F
RAPID CITY     CLOUDY    66  36  33 N24G35    29.93F
$$

REGIONAL REPORTS...WYOMING/IDAHO/WASHINGTON
CITY           SKY/WX    TMP DP  RH WIND       PRES   REMARKS
GILLETTE       SUNNY     66  32  28 NW24G35   30.00F
SHERIDAN       SUNNY     68  30  24 N24G32    30.00F
CODY           SUNNY     68  27  21 W12G18    30.08F
YELLOWSTONE LA SUNNY     54  27  35 VRB6      30.28F
SALMON         SUNNY    N/A N/A N/A SW3       30.10F
MULLAN PASS    SUNNY     55  37  51 VRB7G17   30.13S
SAND POINT     PTCLDY    57  45  64 E5        30.03F
SPOKANE        PTCLDY    66  50  56 VRB3      30.01F

$$



USA.gov is the U.S. government's official web portal to all federal, state and local government web resources and services.